WXM80 ListenWXM80 Stop

You find our weather info also at:

UK Metoffice

WeatherCloud

Weather Underground

Northeastern Weather Network

AWEKAS

Citizen Weather Observer Program (CWOP)

HAMweather, WeatherForYou, PWS Weather


Weather Underground History page Text

Daily Summary for January 28, 2018 Units:  Metric    English   Both
« Previous Day
Next Day »
Daily Weekly Monthly Yearly Custom
  High: Low: Average:
Temperature: 10.4 °C 4.6 °C 8.4 °C
Dew Point: 9.2 °C 3.7 °C 7.1 °C
Humidity: 96 % 80 % 92 %
Wind Speed: 14.2 km/h 0 km/h 1.6 km/h
Wind Gust: 24.1 km/h - -
Wind:- - SW
Pressure: 1017.2 hPa 1014.4 hPa -
Precipitation: 0.51 mm    
Historical Graphs
 
 
Tabular Data for January 28, 2018
Time Temperature Dew Point Pressure Wind Wind Speed Wind Gust Humidity Rainfall Rate (Hourly)
00:04 9.8 °C 6.5 °C 1014.8 hPa SSW 10.5 km/h 18.5 km/h 80 % 0 mm
00:09 9.8 °C 6.5 °C 1014.8 hPa South 11.6 km/h 14.5 km/h 80 % 0 mm
00:14 9.8 °C 6.5 °C 1014.8 hPa SSW 8.9 km/h 14.8 km/h 80 % 0 mm
00:20 9.8 °C 6.6 °C 1014.8 hPa South 14.2 km/h 24.1 km/h 80 % 0 mm
00:25 9.9 °C 6.6 °C 1014.8 hPa West 7.9 km/h 17.7 km/h 80 % 0 mm
00:30 9.9 °C 6.7 °C 1014.8 hPa SSW 8 km/h 11.1 km/h 80 % 0 mm
00:35 9.9 °C 6.7 °C 1014.8 hPa SW 7.6 km/h 16.7 km/h 80 % 0 mm
00:40 10 °C 6.7 °C 1014.4 hPa SSW 7.6 km/h 14.8 km/h 80 % 0 mm
00:45 10.1 °C 6.8 °C 1014.4 hPa SW 9.8 km/h 20.4 km/h 80 % 0 mm
00:50 10.1 °C 6.8 °C 1014.4 hPa SW 7.9 km/h 14.8 km/h 80 % 0 mm
00:55 10.1 °C 6.8 °C 1014.4 hPa SSE 13.2 km/h 24.1 km/h 80 % 0 mm
01:00 10.2 °C 6.9 °C 1014.4 hPa SW 10.1 km/h 19.3 km/h 80 % 0 mm
01:05 10.2 °C 6.9 °C 1014.8 hPa SW 11.1 km/h 22.2 km/h 80 % 0 mm
01:10 10.3 °C 7 °C 1014.8 hPa SSW 9.7 km/h 14.5 km/h 80 % 0 mm
01:15 10.3 °C 7.1 °C 1014.8 hPa SW 8.5 km/h 13 km/h 80 % 0 mm
01:20 10.4 °C 7.1 °C 1014.8 hPa WSW 8.7 km/h 14.8 km/h 80 % 0 mm
01:25 10.4 °C 7.2 °C 1014.8 hPa SSW 6.8 km/h 11.3 km/h 80 % 0 mm
01:30 10.4 °C 7.2 °C 1014.8 hPa SSW 5.8 km/h 13 km/h 80 % 0 mm
01:35 10.4 °C 7.2 °C 1014.8 hPa SSW 8.2 km/h 12.9 km/h 80 % 0 mm
01:40 10.4 °C 7.3 °C 1014.8 hPa WSW 4.7 km/h 11.3 km/h 81 % 0 mm
01:45 10.4 °C 7.3 °C 1014.8 hPa SSW 6.8 km/h 11.3 km/h 81 % 0 mm
01:50 10.4 °C 7.3 °C 1014.8 hPa South 5.5 km/h 13 km/h 81 % 0 mm
01:56 10.3 °C 7.4 °C 1014.8 hPa WSW 6.8 km/h 9.7 km/h 82 % 0 mm
02:01 10.3 °C 7.5 °C 1014.4 hPa SW 2.1 km/h 9.7 km/h 83 % 0 mm
02:06 10.2 °C 7.4 °C 1014.4 hPa SSW 3.9 km/h 9.3 km/h 83 % 0 mm
02:11 10.2 °C 7.6 °C 1014.4 hPa SW 3.1 km/h 5.6 km/h 84 % 0 mm
02:16 10.1 °C 7.5 °C 1014.8 hPa SW 3.5 km/h 5.6 km/h 84 % 0 mm
02:21 10 °C 7.4 °C 1014.4 hPa SW 4.2 km/h 7.4 km/h 84 % 0 mm
02:26 9.9 °C 7.3 °C 1014.4 hPa SW 6 km/h 11.1 km/h 84 % 0 mm
02:31 9.8 °C 7.3 °C 1014.4 hPa SSW 3.7 km/h 5.6 km/h 84 % 0 mm
02:36 9.7 °C 7.3 °C 1014.8 hPa SW 0.6 km/h 3.2 km/h 85 % 0 mm
02:41 9.7 °C 7.3 °C 1014.8 hPa SW 3.4 km/h 5.6 km/h 85 % 0 mm
02:46 9.6 °C 7.2 °C 1014.8 hPa WSW 1.6 km/h 5.6 km/h 85 % 0 mm
02:51 9.5 °C 7.1 °C 1014.8 hPa SSW 3.1 km/h 8 km/h 85 % 0 mm
02:56 9.4 °C 7 °C 1014.8 hPa SW 4 km/h 6.4 km/h 85 % 0 mm
03:01 9.3 °C 7.1 °C 1014.8 hPa SSW 1.9 km/h 5.6 km/h 86 % 0 mm
03:06 9.2 °C 7 °C 1014.8 hPa SSW 3.1 km/h 11.1 km/h 86 % 0 mm
03:11 9.1 °C 6.9 °C 1014.8 hPa SW 2.6 km/h 5.6 km/h 86 % 0 mm
03:16 9.1 °C 6.8 °C 1014.8 hPa SW 1.9 km/h 5.6 km/h 86 % 0 mm
03:21 8.9 °C 6.9 °C 1014.8 hPa SW 1.6 km/h 5.6 km/h 87 % 0 mm
03:26 8.8 °C 6.9 °C 1014.8 hPa SSW 2.4 km/h 7.4 km/h 88 % 0 mm
03:32 8.8 °C 6.9 °C 1014.8 hPa SSW 4.8 km/h 9.7 km/h 88 % 0 mm
03:37 8.7 °C 7 °C 1014.8 hPa SSW 3.5 km/h 7.4 km/h 89 % 0 mm
03:42 8.7 °C 6.9 °C 1014.8 hPa SW 0.8 km/h 5.6 km/h 89 % 0 mm
03:47 8.7 °C 7.1 °C 1014.4 hPa SW 2.4 km/h 9.3 km/h 90 % 0 mm
03:52 8.6 °C 7.1 °C 1014.8 hPa SW 2.9 km/h 5.6 km/h 90 % 0 mm
03:57 8.6 °C 7.1 °C 1014.8 hPa WSW 4.5 km/h 9.7 km/h 90 % 0 mm
04:02 8.6 °C 7.2 °C 1014.8 hPa WSW 7.6 km/h 11.1 km/h 91 % 0 mm
04:07 8.6 °C 7.4 °C 1014.8 hPa SW 4.2 km/h 14.8 km/h 92 % 0 mm
04:12 8.7 °C 7.4 °C 1014.8 hPa SW 4.3 km/h 5.6 km/h 92 % 0 mm
04:17 8.7 °C 7.4 °C 1014.8 hPa SSW 3.1 km/h 5.6 km/h 92 % 0 mm
04:22 8.6 °C 7.4 °C 1014.8 hPa SW 3.2 km/h 5.6 km/h 92 % 0 mm
04:27 8.6 °C 7.4 °C 1014.8 hPa SSW 4 km/h 6.4 km/h 92 % 0 mm
04:32 8.6 °C 7.6 °C 1014.8 hPa WSW 0.2 km/h 5.6 km/h 93 % 0 mm
04:37 8.7 °C 7.6 °C 1015.1 hPa SW 3.1 km/h 5.6 km/h 93 % 0 mm
04:42 8.6 °C 7.6 °C 1014.8 hPa SSW 4.7 km/h 6.4 km/h 93 % 0 mm
04:47 8.7 °C 7.6 °C 1015.1 hPa SW 3.5 km/h 5.6 km/h 93 % 0 mm
04:52 8.7 °C 7.6 °C 1015.1 hPa SSW 2.9 km/h 4.8 km/h 93 % 0 mm
04:57 8.7 °C 7.6 °C 1015.1 hPa WSW 3.1 km/h 5.6 km/h 93 % 0 mm
05:02 8.7 °C 7.8 °C 1015.1 hPa SSW 1.1 km/h 7.4 km/h 94 % 0 mm
05:08 8.7 °C 7.8 °C 1015.1 hPa SSW 1.3 km/h 5.6 km/h 94 % 0 mm
05:13 8.7 °C 7.8 °C 1015.1 hPa SSW 2.1 km/h 6.4 km/h 94 % 0 mm
05:18 8.8 °C 7.9 °C 1015.1 hPa SW 3.9 km/h 13 km/h 94 % 0 mm
05:23 8.8 °C 7.9 °C 1015.1 hPa SW 4.7 km/h 5.6 km/h 94 % 0 mm
05:28 8.9 °C 8 °C 1015.1 hPa SW 5.8 km/h 9.3 km/h 94 % 0 mm
05:33 8.9 °C 8.2 °C 1015.1 hPa SW 6.4 km/h 11.3 km/h 95 % 0 mm
05:38 8.9 °C 8.2 °C 1015.1 hPa WSW 3.1 km/h 5.6 km/h 95 % 0 mm
05:43 9 °C 8.2 °C 1015.1 hPa SW 4.5 km/h 7.4 km/h 95 % 0 mm
05:48 9 °C 8.2 °C 1015.1 hPa SW 1.4 km/h 5.6 km/h 95 % 0 mm
05:53 9 °C 8.2 °C 1015.1 hPa WSW 2.9 km/h 5.6 km/h 95 % 0 mm
05:58 9.1 °C 8.3 °C 1015.1 hPa West 2.1 km/h 7.4 km/h 95 % 0 mm
06:03 9.1 °C 8.3 °C 1015.1 hPa SW 1 km/h 3.7 km/h 95 % 0 mm
06:08 9.1 °C 8.3 °C 1015.1 hPa SW 1.4 km/h 1.9 km/h 95 % 0 mm
06:13 9.1 °C 8.3 °C 1015.1 hPa SW 1.4 km/h 5.6 km/h 95 % 0 mm
06:18 9.1 °C 8.3 °C 1015.1 hPa SSW 2.1 km/h 5.6 km/h 95 % 0 mm
06:23 9.1 °C 8.3 °C 1015.5 hPa SW 1.9 km/h 3.7 km/h 95 % 0 mm
06:28 9.1 °C 8.3 °C 1015.5 hPa SW 2.7 km/h 5.6 km/h 95 % 0 mm
06:34 9.1 °C 8.3 °C 1015.5 hPa WSW 4.3 km/h 6.4 km/h 95 % 0 mm
06:39 9.1 °C 8.3 °C 1015.8 hPa SW 1.1 km/h 3.7 km/h 95 % 0 mm
06:44 9 °C 8.2 °C 1015.8 hPa WSW 1.3 km/h 3.7 km/h 95 % 0 mm
06:49 9.1 °C 8.3 °C 1015.8 hPa Calm   3.7 km/h 95 % 0 mm
06:54 9 °C 8.2 °C 1015.8 hPa Calm     95 % 0 mm
06:59 9 °C 8.2 °C 1015.8 hPa SW 0.5 km/h 1.9 km/h 95 % 0 mm
07:04 9 °C 8.2 °C 1015.8 hPa SW 0.2 km/h 3.7 km/h 95 % 0 mm
07:09 9 °C 8.2 °C 1015.8 hPa Calm     95 % 0 mm
07:14 9 °C 8.2 °C 1016.1 hPa WSW 1.3 km/h 3.7 km/h 95 % 0 mm
07:19 9 °C 8.2 °C 1016.1 hPa SW 2.3 km/h 5.6 km/h 95 % 0 mm
07:24 9 °C 8.2 °C 1016.1 hPa SW 0.2 km/h 3.7 km/h 95 % 0 mm
07:29 9 °C 8.2 °C 1015.8 hPa SW 0.3 km/h 3.2 km/h 95 % 0 mm
07:34 9 °C 8.2 °C 1016.1 hPa SW 0.5 km/h 3.7 km/h 95 % 0.25 mm
07:39 9 °C 8.2 °C 1016.1 hPa SW 0.6 km/h 3.7 km/h 95 % 0.25 mm
07:44 9 °C 8.2 °C 1016.1 hPa Calm   1.9 km/h 95 % 0.25 mm
07:49 9 °C 8.2 °C 1016.1 hPa WSW 0.6 km/h 3.7 km/h 95 % 0.25 mm
07:54 9 °C 8.2 °C 1016.1 hPa Calm   1.6 km/h 95 % 0.25 mm
08:00 9 °C 8.2 °C 1016.5 hPa WSW 3.4 km/h 4.8 km/h 95 % 0.25 mm
08:05 9 °C 8.2 °C 1016.5 hPa WSW 2.7 km/h 5.6 km/h 95 % 0.25 mm
08:10 9.1 °C 8.3 °C 1016.5 hPa WSW 0.5 km/h 3.7 km/h 95 % 0.25 mm
08:15 9.1 °C 8.3 °C 1016.5 hPa WSW 0.5 km/h 1.9 km/h 95 % 0.25 mm
08:20 9.1 °C 8.3 °C 1016.5 hPa WSW 0.2 km/h 1.9 km/h 95 % 0.25 mm
08:25 9.1 °C 8.3 °C 1016.5 hPa Calm   3.7 km/h 95 % 0.25 mm
08:30 9.1 °C 8.3 °C 1016.5 hPa WSW 0.5 km/h 1.9 km/h 95 % 0.25 mm
08:35 9.1 °C 8.3 °C 1016.5 hPa WSW 1.4 km/h 1.9 km/h 95 % 0 mm
08:40 9.1 °C 8.3 °C 1016.5 hPa Calm     95 % 0 mm
08:45 9.1 °C 8.3 °C 1016.5 hPa Calm     95 % 0 mm
08:50 9.1 °C 8.3 °C 1016.5 hPa WSW 0.2 km/h 1.9 km/h 95 % 0 mm
08:55 9.1 °C 8.3 °C 1016.5 hPa WSW 1.4 km/h 3.7 km/h 95 % 0 mm
09:00 9.1 °C 8.3 °C 1016.5 hPa WSW 0.2 km/h 1.9 km/h 95 % 0 mm
09:05 9.1 °C 8.3 °C 1016.5 hPa SW 2.7 km/h 5.6 km/h 95 % 0 mm
09:10 9.1 °C 8.5 °C 1016.5 hPa Calm   1.9 km/h 96 % 0 mm
09:15 9.1 °C 8.5 °C 1016.5 hPa SW 1.4 km/h 5.6 km/h 96 % 0 mm
09:20 9.2 °C 8.6 °C 1016.5 hPa Calm     96 % 0 mm
09:25 9.2 °C 8.6 °C 1016.5 hPa SW 0.2 km/h 5.6 km/h 96 % 0 mm
09:31 9.2 °C 8.6 °C 1016.5 hPa Calm   1.6 km/h 96 % 0 mm
09:36 9.2 °C 8.6 °C 1016.5 hPa Calm   1.6 km/h 96 % 0 mm
09:41 9.3 °C 8.7 °C 1016.5 hPa Calm   3.2 km/h 96 % 0 mm
09:46 9.3 °C 8.7 °C 1016.5 hPa SW 1.6 km/h 3.2 km/h 96 % 0 mm
09:51 9.3 °C 8.7 °C 1016.5 hPa Calm   3.7 km/h 96 % 0 mm
09:56 9.4 °C 8.8 °C 1016.5 hPa Calm   4.8 km/h 96 % 0 mm
10:01 9.4 °C 8.8 °C 1016.8 hPa Calm   3.7 km/h 96 % 0 mm
10:06 9.5 °C 8.9 °C 1016.5 hPa SW 0.5 km/h 3.7 km/h 96 % 0 mm
10:11 9.6 °C 8.9 °C 1016.5 hPa SW 4.2 km/h 5.6 km/h 96 % 0 mm
10:16 9.6 °C 9 °C 1016.5 hPa Calm   3.7 km/h 96 % 0 mm
10:21 9.7 °C 9.1 °C 1016.5 hPa WSW 1.1 km/h 3.7 km/h 96 % 0 mm
10:26 9.7 °C 9.1 °C 1016.8 hPa WSW 1.4 km/h 5.6 km/h 96 % 0 mm
10:31 9.7 °C 9.1 °C 1016.8 hPa WSW 0.5 km/h 3.7 km/h 96 % 0 mm
10:36 9.7 °C 9.1 °C 1016.5 hPa SW 2.9 km/h 6.4 km/h 96 % 0 mm
10:41 9.7 °C 9.1 °C 1016.8 hPa WSW 0.8 km/h 5.6 km/h 96 % 0 mm
10:46 9.7 °C 9.1 °C 1016.8 hPa WSW 2.7 km/h 7.4 km/h 96 % 0 mm
10:51 9.8 °C 9.2 °C 1016.8 hPa WSW 2.1 km/h 3.7 km/h 96 % 0 mm
10:56 9.7 °C 9.1 °C 1016.8 hPa WSW 4.7 km/h 9.3 km/h 96 % 0 mm
11:01 9.7 °C 9.1 °C 1016.8 hPa SW 0.8 km/h 5.6 km/h 96 % 0 mm
11:06 9.7 °C 9.1 °C 1016.8 hPa WSW 1.3 km/h 3.7 km/h 96 % 0 mm
11:11 9.7 °C 9.1 °C 1017.2 hPa WSW 1.1 km/h 5.6 km/h 96 % 0 mm
11:16 9.7 °C 9.1 °C 1016.8 hPa WSW 1.6 km/h 3.7 km/h 96 % 0 mm
11:22 9.7 °C 9.1 °C 1016.5 hPa SSW 2.3 km/h 5.6 km/h 96 % 0 mm
11:27 9.7 °C 9.1 °C 1016.5 hPa SSW 0.2 km/h 3.7 km/h 96 % 0 mm
11:32 9.7 °C 9.1 °C 1016.5 hPa North 0.5 km/h 3.2 km/h 96 % 0 mm
11:37 9.7 °C 9.1 °C 1016.1 hPa Calm   1.9 km/h 96 % 0 mm
11:42 9.7 °C 9.1 °C 1016.1 hPa Calm     96 % 0 mm
11:47 9.7 °C 9.1 °C 1016.1 hPa SSW 1.3 km/h 3.7 km/h 96 % 0 mm
11:52 9.7 °C 9.1 °C 1016.1 hPa Calm     96 % 0 mm
11:57 9.7 °C 9.1 °C 1016.1 hPa Calm     96 % 0 mm
12:02 9.7 °C 9.1 °C 1015.8 hPa Calm   3.7 km/h 96 % 0 mm
12:07 9.7 °C 9.1 °C 1015.8 hPa WSW 0.2 km/h 1.9 km/h 96 % 0 mm
12:12 9.6 °C 9 °C 1015.8 hPa WSW 0.3 km/h 1.9 km/h 96 % 0 mm
12:17 9.6 °C 9 °C 1015.8 hPa Calm     96 % 0 mm
12:22 9.6 °C 8.9 °C 1015.8 hPa WSW 2.3 km/h 5.6 km/h 96 % 0 mm
12:27 9.6 °C 8.9 °C 1015.5 hPa WSW 0.5 km/h 3.7 km/h 96 % 0 mm
12:32 9.5 °C 8.9 °C 1015.5 hPa WSW 1.9 km/h 3.2 km/h 96 % 0 mm
12:37 9.5 °C 8.9 °C 1015.5 hPa WSW 2.7 km/h 5.6 km/h 96 % 0 mm
12:43 9.5 °C 8.9 °C 1015.5 hPa Calm     96 % 0 mm
12:48 9.4 °C 8.8 °C 1015.1 hPa WSW 0.2 km/h 1.9 km/h 96 % 0 mm
12:53 9.4 °C 8.8 °C 1015.1 hPa Calm     96 % 0 mm
12:58 9.4 °C 8.8 °C 1015.1 hPa WSW 1.3 km/h 3.7 km/h 96 % 0 mm
13:03 9.4 °C 8.8 °C 1015.1 hPa WSW 1.3 km/h 3.7 km/h 96 % 0 mm
13:08 9.4 °C 8.8 °C 1015.1 hPa WSW 0.6 km/h 5.6 km/h 96 % 0 mm
13:13 9.3 °C 8.6 °C 1015.1 hPa WSW 1.1 km/h 3.7 km/h 95 % 0 mm
13:18 9.3 °C 8.6 °C 1015.1 hPa WSW 0.3 km/h 3.7 km/h 95 % 0 mm
13:23 9.3 °C 8.6 °C 1014.8 hPa WSW 1 km/h 4.8 km/h 95 % 0 mm
13:28 9.3 °C 8.6 °C 1014.8 hPa WSW 1.3 km/h 3.2 km/h 95 % 0 mm
13:33 9.3 °C 8.6 °C 1014.8 hPa NW 1.9 km/h 5.6 km/h 95 % 0 mm
13:38 9.3 °C 8.6 °C 1014.8 hPa NW 1 km/h 3.7 km/h 95 % 0 mm
13:43 9.3 °C 8.6 °C 1014.8 hPa WNW 3.1 km/h 5.6 km/h 95 % 0 mm
13:48 9.3 °C 8.6 °C 1015.1 hPa West 2.9 km/h 5.6 km/h 95 % 0 mm
13:53 9.3 °C 8.6 °C 1014.8 hPa Calm   1.9 km/h 95 % 0 mm
13:58 9.4 °C 8.6 °C 1014.8 hPa WSW 1.1 km/h 5.6 km/h 95 % 0 mm
14:03 9.4 °C 8.6 °C 1014.8 hPa WSW 3.2 km/h 3.7 km/h 95 % 0 mm
14:08 9.4 °C 8.7 °C 1014.8 hPa WSW 4.2 km/h 5.6 km/h 95 % 0 mm
14:13 9.5 °C 8.6 °C 1014.8 hPa WSW 2.6 km/h 3.7 km/h 94 % 0 mm
14:18 9.6 °C 8.6 °C 1014.8 hPa WSW 0.5 km/h 3.7 km/h 94 % 0 mm
14:24 9.6 °C 8.6 °C 1015.1 hPa WSW 0.2 km/h 1.6 km/h 94 % 0 mm
14:29 9.6 °C 8.7 °C 1015.1 hPa WSW 0.3 km/h 3.7 km/h 94 % 0 mm
14:34 9.6 °C 8.6 °C 1014.8 hPa WSW 0.3 km/h 1.9 km/h 93 % 0.25 mm
14:39 9.7 °C 8.4 °C 1014.8 hPa Calm   1.6 km/h 92 % 0.25 mm
14:44 9.7 °C 8.4 °C 1014.8 hPa WSW 0.2 km/h 5.6 km/h 92 % 0.25 mm
14:49 9.7 °C 8.3 °C 1014.8 hPa Calm   1.9 km/h 91 % 0.25 mm
14:54 9.7 °C 8.1 °C 1014.8 hPa Calm   1.6 km/h 90 % 0.25 mm
14:59 9.7 °C 8.1 °C 1014.4 hPa WSW 0.6 km/h 3.7 km/h 90 % 0.25 mm
15:04 9.6 °C 7.7 °C 1014.8 hPa Calm     88 % 0.25 mm
15:09 9.6 °C 7.7 °C 1014.8 hPa WSW 2.3 km/h 5.6 km/h 88 % 0.25 mm
15:14 9.6 °C 7.7 °C 1014.8 hPa WSW 0.6 km/h 3.2 km/h 88 % 0.25 mm
15:19 9.6 °C 7.7 °C 1014.8 hPa Calm     88 % 0.25 mm
15:24 9.6 °C 7.7 °C 1014.4 hPa Calm     88 % 0.25 mm
15:29 9.5 °C 7.6 °C 1014.8 hPa Calm     88 % 0.25 mm
15:34 9.5 °C 7.4 °C 1014.8 hPa Calm     87 % 0 mm
15:39 9.4 °C 7.4 °C 1014.8 hPa Calm     87 % 0 mm
15:45 9.4 °C 7.4 °C 1014.8 hPa Calm     87 % 0 mm
15:50 9.4 °C 7.3 °C 1014.8 hPa Calm     87 % 0 mm
15:55 9.3 °C 7.4 °C 1014.8 hPa Calm     88 % 0 mm
16:00 9.3 °C 7.4 °C 1014.8 hPa Calm   1.6 km/h 88 % 0 mm
16:05 9.3 °C 7.4 °C 1014.8 hPa Calm     88 % 0 mm
16:10 9.2 °C 7.3 °C 1014.8 hPa Calm     88 % 0 mm
16:15 9.2 °C 7.3 °C 1014.8 hPa Calm   1.9 km/h 88 % 0 mm
16:20 9.2 °C 7.3 °C 1014.8 hPa Calm     88 % 0 mm
16:25 9.1 °C 7.4 °C 1014.8 hPa Calm     89 % 0 mm
16:30 9.1 °C 7.3 °C 1014.8 hPa Calm     89 % 0 mm
16:35 9 °C 7.3 °C 1015.1 hPa Calm     89 % 0 mm
16:41 8.9 °C 7.2 °C 1015.1 hPa Calm   3.2 km/h 89 % 0 mm
16:46 8.9 °C 7.2 °C 1015.1 hPa Calm   3.2 km/h 89 % 0 mm
16:50 8.8 °C 7.1 °C 1015.1 hPa Calm     89 % 0 mm
16:56 8.8 °C 7.1 °C 1015.1 hPa Calm     89 % 0 mm
17:01 8.7 °C 7 °C 1015.1 hPa Calm     89 % 0 mm
17:06 8.7 °C 6.9 °C 1015.1 hPa Calm     89 % 0 mm
17:11 8.6 °C 7.1 °C 1015.1 hPa Calm     90 % 0 mm
17:16 8.6 °C 7 °C 1015.1 hPa Calm     90 % 0 mm
17:21 8.4 °C 6.7 °C 1015.1 hPa Calm     89 % 0 mm
17:26 8.4 °C 6.7 °C 1015.1 hPa Calm     89 % 0 mm
17:31 8.3 °C 6.8 °C 1015.1 hPa Calm     90 % 0 mm
17:36 8.2 °C 6.7 °C 1015.1 hPa Calm     90 % 0 mm
17:41 8.1 °C 6.6 °C 1015.1 hPa Calm     90 % 0 mm
17:46 8.1 °C 6.5 °C 1015.1 hPa Calm     90 % 0 mm
17:51 7.9 °C 6.4 °C 1015.1 hPa Calm     90 % 0 mm
17:56 7.9 °C 6.3 °C 1015.1 hPa Calm     90 % 0 mm
18:01 7.8 °C 6.3 °C 1015.1 hPa Calm     90 % 0 mm
18:06 7.8 °C 6.2 °C 1015.5 hPa Calm     90 % 0 mm
18:11 7.7 °C 6.1 °C 1015.5 hPa Calm     90 % 0 mm
18:16 7.6 °C 6.1 °C 1015.5 hPa Calm     90 % 0 mm
18:22 7.6 °C 6.1 °C 1015.8 hPa Calm     90 % 0 mm
18:27 7.5 °C 5.9 °C 1015.8 hPa Calm     90 % 0 mm
18:32 7.4 °C 6.1 °C 1015.5 hPa Calm     91 % 0 mm
18:37 7.4 °C 6 °C 1015.8 hPa Calm     91 % 0 mm
18:42 7.3 °C 5.9 °C 1015.8 hPa Calm     91 % 0 mm
18:47 7.2 °C 5.8 °C 1015.8 hPa Calm     91 % 0 mm
18:52 7.2 °C 5.8 °C 1015.8 hPa Calm     91 % 0 mm
18:57 7.1 °C 5.7 °C 1015.8 hPa Calm     91 % 0 mm
19:02 6.9 °C 5.6 °C 1015.8 hPa Calm     91 % 0 mm
19:07 6.8 °C 5.4 °C 1015.5 hPa Calm     91 % 0 mm
19:12 6.7 °C 5.3 °C 1015.5 hPa Calm     91 % 0 mm
19:17 6.6 °C 5.2 °C 1015.8 hPa Calm     91 % 0 mm
19:22 6.5 °C 5.1 °C 1015.8 hPa Calm     91 % 0 mm
19:27 6.4 °C 5.1 °C 1015.8 hPa Calm     91 % 0 mm
19:32 6.3 °C 4.9 °C 1015.8 hPa Calm     91 % 0 mm
19:37 6.3 °C 4.9 °C 1015.5 hPa Calm     91 % 0 mm
19:42 6.2 °C 4.8 °C 1015.8 hPa Calm     91 % 0 mm
19:47 6.1 °C 4.8 °C 1015.8 hPa Calm     91 % 0 mm
19:52 6 °C 4.7 °C 1015.5 hPa Calm     91 % 0 mm
19:58 5.9 °C 4.6 °C 1015.8 hPa Calm     91 % 0 mm
20:03 5.9 °C 4.6 °C 1015.8 hPa Calm     91 % 0 mm
20:08 5.8 °C 4.6 °C 1015.8 hPa Calm     92 % 0 mm
20:13 5.8 °C 4.4 °C 1015.8 hPa Calm     91 % 0 mm
20:18 5.7 °C 4.5 °C 1015.8 hPa Calm     92 % 0 mm
20:23 5.7 °C 4.4 °C 1015.8 hPa Calm     92 % 0 mm
20:28 5.7 °C 4.4 °C 1015.8 hPa Calm     92 % 0 mm
20:33 5.6 °C 4.4 °C 1015.8 hPa Calm     92 % 0 mm
20:38 5.6 °C 4.3 °C 1015.8 hPa Calm     92 % 0 mm
20:43 5.5 °C 4.3 °C 1015.8 hPa Calm     92 % 0 mm
20:48 5.5 °C 4.3 °C 1015.5 hPa Calm     92 % 0 mm
20:53 5.4 °C 4.2 °C 1015.5 hPa Calm     92 % 0 mm
20:58 5.4 °C 4.2 °C 1015.8 hPa Calm     92 % 0 mm
21:03 5.3 °C 4.3 °C 1015.8 hPa Calm     93 % 0 mm
21:08 5.3 °C 4.2 °C 1015.8 hPa Calm     93 % 0 mm
21:13 5.3 °C 4.2 °C 1015.8 hPa Calm     93 % 0 mm
21:18 5.2 °C 4.2 °C 1015.8 hPa Calm     93 % 0 mm
21:23 5.2 °C 4.2 °C 1015.8 hPa Calm     93 % 0 mm
21:28 5.2 °C 4.2 °C 1016.1 hPa Calm     93 % 0 mm
21:34 5.2 °C 4.3 °C 1015.8 hPa Calm     94 % 0 mm
21:39 5.2 °C 4.3 °C 1015.8 hPa Calm     94 % 0 mm
21:44 5.2 °C 4.3 °C 1015.8 hPa Calm     94 % 0 mm
21:49 5.2 °C 4.3 °C 1016.1 hPa Calm     94 % 0 mm
21:54 5.2 °C 4.3 °C 1015.8 hPa Calm     94 % 0 mm
21:59 5.3 °C 4.4 °C 1015.8 hPa Calm     94 % 0 mm
22:04 5.3 °C 4.4 °C 1015.8 hPa Calm     94 % 0 mm
22:09 5.3 °C 4.4 °C 1015.8 hPa Calm     94 % 0 mm
22:14 5.3 °C 4.4 °C 1015.8 hPa Calm     94 % 0 mm
22:19 5.3 °C 4.4 °C 1015.8 hPa Calm     94 % 0 mm
22:24 5.3 °C 4.4 °C 1015.8 hPa Calm     94 % 0 mm
22:29 5.3 °C 4.6 °C 1016.1 hPa Calm     95 % 0 mm
22:34 5.2 °C 4.5 °C 1016.1 hPa Calm     95 % 0 mm
22:39 5.2 °C 4.5 °C 1016.1 hPa Calm     95 % 0 mm
22:44 5.2 °C 4.4 °C 1016.1 hPa Calm     95 % 0 mm
22:49 5.2 °C 4.4 °C 1015.8 hPa Calm     95 % 0 mm
22:54 5.1 °C 4.4 °C 1015.8 hPa Calm     95 % 0 mm
22:59 5.1 °C 4.4 °C 1015.8 hPa Calm     95 % 0 mm
23:04 5.1 °C 4.2 °C 1015.8 hPa Calm     94 % 0 mm
23:10 5 °C 4.1 °C 1015.8 hPa Calm     94 % 0 mm
23:15 4.9 °C 4.1 °C 1015.8 hPa Calm     94 % 0 mm
23:20 4.9 °C 4.1 °C 1015.8 hPa Calm     94 % 0 mm
23:25 4.9 °C 4 °C 1015.8 hPa Calm     94 % 0 mm
23:30 4.8 °C 3.9 °C 1015.8 hPa Calm     94 % 0 mm
23:35 4.8 °C 3.9 °C 1015.8 hPa Calm     94 % 0 mm
23:40 4.8 °C 3.9 °C 1015.8 hPa Calm     94 % 0 mm
23:45 4.7 °C 3.8 °C 1015.8 hPa WSW 0.5 km/h 1.9 km/h 94 % 0 mm
23:50 4.7 °C 3.8 °C 1015.8 hPa Calm     94 % 0 mm
23:55 4.6 °C 3.7 °C 1015.8 hPa WSW 0.3 km/h 1.9 km/h 94 % 0 mm
Crab Meadow Weather
Compliments of Weather Underground - 3 mb

Script developed by  Jim McMurry - jmcmurry@mwt.net Adapted for the template by  Wim van der Kuil - Leuven-Template.eu

Humidity: Humidity is the amount of water vapor in the air. The term "humidity" refers to relative humidity. Relative humidity is defined as the amount of water vapor in a sample of air compared to the maximum amount of water vapor the air can hold at any specific temperature in a form of 0 to 100%. Relative humidity is important in forecasting weather. Humidity indicates the likelihood of precipitation, dew, or fog. High humidity makes people feel hotter outside in the summer because it reduces the effectiveness of sweating to cool the body by preventing the evaporation of perspiration from the skin.